TimeAKDT,TemperatureF,Dew PointF,Humidity,Sea Level PressureIn,VisibilityMPH,Wind Direction,Wind SpeedMPH,Gust SpeedMPH,PrecipitationIn,Events,Conditions,WindDirDegrees,DateUTC
12:16 AM,35.6,17.6,48,30.09,10.0,ESE,6.9,-,N/A,,Clear,120,2012-10-24 08:16:00
12:36 AM,37.4,17.6,45,30.10,10.0,ESE,6.9,-,N/A,,Clear,110,2012-10-24 08:36:00
12:56 AM,37.4,17.6,45,30.09,10.0,ESE,9.2,-,N/A,,Clear,110,2012-10-24 08:56:00
1:16 AM,39.2,15.8,39,30.09,10.0,ESE,6.9,-,N/A,,Clear,110,2012-10-24 09:16:00
1:36 AM,39.2,15.8,39,30.09,10.0,ESE,8.1,-,N/A,,Clear,120,2012-10-24 09:36:00
1:56 AM,37.4,15.8,41,30.09,10.0,ESE,6.9,-,N/A,,Clear,110,2012-10-24 09:56:00
2:16 AM,37.4,15.8,41,30.10,10.0,SE,5.8,-,N/A,,Clear,130,2012-10-24 10:16:00
2:36 AM,37.4,15.8,41,30.10,10.0,SE,5.8,-,N/A,,Clear,130,2012-10-24 10:36:00
2:56 AM,35.6,17.6,48,30.11,10.0,SE,5.8,-,N/A,,Clear,130,2012-10-24 10:56:00
3:16 AM,35.6,17.6,48,30.11,10.0,ESE,6.9,-,N/A,,Clear,120,2012-10-24 11:16:00
3:36 AM,35.6,17.6,48,30.11,10.0,SSE,5.8,-,N/A,,Clear,150,2012-10-24 11:36:00
3:56 AM,33.8,19.4,56,30.11,10.0,SE,4.6,-,N/A,,Clear,140,2012-10-24 11:56:00
4:16 AM,33.8,17.6,52,30.11,10.0,SE,5.8,-,N/A,,Clear,130,2012-10-24 12:16:00
4:36 AM,33.8,15.8,48,30.11,10.0,SE,4.6,-,N/A,,Clear,140,2012-10-24 12:36:00
4:56 AM,33.8,19.4,56,30.11,10.0,SSE,5.8,-,N/A,,Clear,150,2012-10-24 12:56:00
5:16 AM,33.8,17.6,52,30.12,10.0,ESE,6.9,-,N/A,,Clear,120,2012-10-24 13:16:00
5:36 AM,33.8,19.4,56,30.12,10.0,SE,6.9,-,N/A,,Clear,130,2012-10-24 13:36:00
5:56 AM,33.8,19.4,56,30.12,10.0,SE,5.8,-,N/A,,Clear,140,2012-10-24 13:56:00
6:16 AM,33.8,21.2,60,30.13,10.0,SE,5.8,-,N/A,,Clear,140,2012-10-24 14:16:00
6:36 AM,32.0,19.4,60,30.14,10.0,SE,5.8,-,N/A,,Clear,130,2012-10-24 14:36:00
6:56 AM,33.8,17.6,52,30.14,10.0,ESE,6.9,-,N/A,,Partly Cloudy,110,2012-10-24 14:56:00
7:16 AM,33.8,19.4,56,30.14,10.0,ESE,5.8,-,N/A,,Partly Cloudy,110,2012-10-24 15:16:00
7:36 AM,33.8,19.4,56,30.15,10.0,ESE,8.1,-,N/A,,Partly Cloudy,120,2012-10-24 15:36:00
7:56 AM,35.6,19.4,52,30.15,10.0,ESE,5.8,-,N/A,,Partly Cloudy,120,2012-10-24 15:56:00
8:16 AM,35.6,19.4,52,30.15,10.0,ESE,8.1,-,N/A,,Partly Cloudy,110,2012-10-24 16:16:00
8:36 AM,35.6,19.4,52,30.16,10.0,ESE,6.9,-,N/A,,Partly Cloudy,120,2012-10-24 16:36:00
8:56 AM,37.4,19.4,48,30.16,10.0,ESE,8.1,-,N/A,,Partly Cloudy,110,2012-10-24 16:56:00
9:16 AM,37.4,21.2,52,30.16,10.0,ESE,9.2,-,N/A,,Partly Cloudy,110,2012-10-24 17:16:00
9:36 AM,39.2,19.4,45,30.16,10.0,East,11.5,-,N/A,,Partly Cloudy,100,2012-10-24 17:36:00
9:56 AM,39.2,17.6,42,30.16,10.0,East,10.4,-,N/A,,Partly Cloudy,90,2012-10-24 17:56:00
10:16 AM,39.2,15.8,39,30.17,10.0,East,10.4,-,N/A,,Partly Cloudy,100,2012-10-24 18:16:00
10:36 AM,39.2,17.6,42,30.17,10.0,East,12.7,-,N/A,,Partly Cloudy,90,2012-10-24 18:36:00
10:56 AM,39.2,17.6,42,30.17,10.0,East,12.7,19.6,N/A,,Partly Cloudy,90,2012-10-24 18:56:00
11:16 AM,41.0,17.6,39,30.18,10.0,East,9.2,-,N/A,,Partly Cloudy,90,2012-10-24 19:16:00
11:36 AM,41.0,17.6,39,30.18,10.0,East,10.4,17.3,N/A,,Partly Cloudy,80,2012-10-24 19:36:00
11:56 AM,41.0,17.6,39,30.18,10.0,East,11.5,-,N/A,,Partly Cloudy,90,2012-10-24 19:56:00
12:16 PM,41.0,17.6,39,30.18,10.0,East,11.5,18.4,N/A,,Partly Cloudy,80,2012-10-24 20:16:00
12:36 PM,41.0,17.6,39,30.19,10.0,East,11.5,-,N/A,,Partly Cloudy,80,2012-10-24 20:36:00
12:56 PM,42.8,15.8,34,30.19,10.0,East,11.5,-,N/A,,Partly Cloudy,90,2012-10-24 20:56:00
1:16 PM,42.8,17.6,36,30.19,10.0,East,10.4,17.3,N/A,,Partly Cloudy,90,2012-10-24 21:16:00
1:36 PM,42.8,17.6,36,30.20,10.0,East,10.4,-,N/A,,Partly Cloudy,80,2012-10-24 21:36:00
1:56 PM,42.8,17.6,36,30.20,10.0,ENE,10.4,-,N/A,,Partly Cloudy,70,2012-10-24 21:56:00
2:16 PM,42.8,15.8,34,30.20,10.0,East,9.2,16.1,N/A,,Partly Cloudy,80,2012-10-24 22:16:00
2:36 PM,42.8,17.6,36,30.21,10.0,ENE,10.4,-,N/A,,Partly Cloudy,70,2012-10-24 22:36:00
2:56 PM,42.8,15.8,34,30.21,10.0,ENE,9.2,-,N/A,,Partly Cloudy,70,2012-10-24 22:56:00
3:16 PM,42.8,17.6,36,30.21,10.0,ENE,12.7,-,N/A,,Partly Cloudy,70,2012-10-24 23:16:00
3:36 PM,42.8,15.8,34,30.22,10.0,East,8.1,-,N/A,,Partly Cloudy,90,2012-10-24 23:36:00
3:56 PM,42.8,15.8,34,30.23,10.0,East,8.1,-,N/A,,Partly Cloudy,80,2012-10-24 23:56:00
4:16 PM,41.0,15.8,36,30.23,10.0,East,8.1,-,N/A,,Partly Cloudy,90,2012-10-25 00:16:00
4:36 PM,41.0,17.6,39,30.24,10.0,East,9.2,-,N/A,,Partly Cloudy,80,2012-10-25 00:36:00
4:56 PM,39.2,15.8,39,30.24,10.0,East,9.2,-,N/A,,Partly Cloudy,80,2012-10-25 00:56:00
5:16 PM,39.2,15.8,39,30.24,10.0,East,9.2,17.3,N/A,,Partly Cloudy,100,2012-10-25 01:16:00
5:36 PM,39.2,15.8,39,30.25,10.0,East,10.4,-,N/A,,Partly Cloudy,90,2012-10-25 01:36:00
5:56 PM,39.2,15.8,39,30.26,10.0,East,10.4,-,N/A,,Partly Cloudy,100,2012-10-25 01:56:00
6:16 PM,39.2,15.8,39,30.26,10.0,ESE,9.2,-,N/A,,Partly Cloudy,110,2012-10-25 02:16:00
6:36 PM,39.2,14.0,36,30.27,10.0,East,9.2,-,N/A,,Partly Cloudy,90,2012-10-25 02:36:00
6:56 PM,39.2,14.0,36,30.27,10.0,East,11.5,18.4,N/A,,Partly Cloudy,100,2012-10-25 02:56:00
7:16 PM,39.2,15.8,39,30.27,10.0,ESE,9.2,-,N/A,,Overcast,110,2012-10-25 03:16:00
7:36 PM,39.2,15.8,39,30.28,10.0,East,11.5,-,N/A,,Overcast,90,2012-10-25 03:36:00
7:56 PM,39.2,15.8,39,30.28,10.0,East,12.7,-,N/A,,Overcast,90,2012-10-25 03:56:00
8:47 PM,39.2,15.8,39,30.30,10.0,ENE,8.1,-,N/A,,Mostly Cloudy,60,2012-10-25 04:47:00
11:16 PM,35.6,19.4,52,30.33,10.0,SE,5.8,-,N/A,,Partly Cloudy,140,2012-10-25 07:16:00
11:36 PM,35.6,17.6,48,30.33,10.0,SE,5.8,-,N/A,,Mostly Cloudy,140,2012-10-25 07:36:00
11:56 PM,35.6,17.6,48,30.34,10.0,SSE,5.8,-,N/A,,Overcast,150,2012-10-25 07:56:00